Year,Month,Day,Hour,Minute,Value (Times are PST for temperature in C)
2018,08,21,00,00,20.30
2018,08,21,00,01,20.30
2018,08,21,00,02,20.30
2018,08,21,00,03,20.30
2018,08,21,00,04,20.20
2018,08,21,00,05,20.20
2018,08,21,00,06,20.20
2018,08,21,00,07,20.10
2018,08,21,00,08,20.10
2018,08,21,00,09,20.10
2018,08,21,00,10,20.00
2018,08,21,00,11,20.00
2018,08,21,00,12,20.00
2018,08,21,00,13,20.10
2018,08,21,00,14,20.10
2018,08,21,00,15,20.10
2018,08,21,00,16,20.10
2018,08,21,00,17,20.20
2018,08,21,00,18,20.20
2018,08,21,00,19,20.30
2018,08,21,00,20,20.30
2018,08,21,00,21,20.30
2018,08,21,00,22,20.30
2018,08,21,00,23,20.30
2018,08,21,00,24,20.30
2018,08,21,00,25,20.30
2018,08,21,00,26,20.30
2018,08,21,00,27,20.30
2018,08,21,00,28,20.30
2018,08,21,00,29,20.30
2018,08,21,00,30,20.20
2018,08,21,00,31,20.20
2018,08,21,00,32,20.20
2018,08,21,00,33,20.20
2018,08,21,00,34,20.10
2018,08,21,00,35,20.10
2018,08,21,00,36,20.00
2018,08,21,00,37,19.90
2018,08,21,00,38,19.90
2018,08,21,00,39,19.90
2018,08,21,00,40,19.80
2018,08,21,00,41,19.80
2018,08,21,00,42,19.80
2018,08,21,00,43,19.80
2018,08,21,00,44,19.80
2018,08,21,00,45,19.80
2018,08,21,00,46,19.80
2018,08,21,00,47,19.80
2018,08,21,00,48,19.80
2018,08,21,00,49,19.80
2018,08,21,00,50,19.80
2018,08,21,00,51,19.80
2018,08,21,00,52,19.80
2018,08,21,00,53,19.80
2018,08,21,00,54,19.80
2018,08,21,00,55,19.80
2018,08,21,00,56,19.80
2018,08,21,00,57,19.90
2018,08,21,00,58,19.90
2018,08,21,00,59,19.90
2018,08,21,01,00,19.90
2018,08,21,01,01,19.90
2018,08,21,01,02,20.00
2018,08,21,01,03,20.00
2018,08,21,01,04,20.00
2018,08,21,01,05,20.10
2018,08,21,01,06,20.10
2018,08,21,01,07,20.10
2018,08,21,01,08,20.10
2018,08,21,01,09,20.10
2018,08,21,01,10,20.10
2018,08,21,01,11,20.10
2018,08,21,01,12,20.10
2018,08,21,01,13,20.10
2018,08,21,01,14,20.00
2018,08,21,01,15,20.00
2018,08,21,01,16,19.90
2018,08,21,01,17,19.90
2018,08,21,01,18,19.90
2018,08,21,01,19,19.80
2018,08,21,01,20,19.80
2018,08,21,01,21,19.80
2018,08,21,01,22,19.80
2018,08,21,01,23,19.80
2018,08,21,01,24,19.80
2018,08,21,01,25,19.80
2018,08,21,01,26,19.70
2018,08,21,01,27,19.70
2018,08,21,01,28,19.70
2018,08,21,01,29,19.70
2018,08,21,01,30,19.60
2018,08,21,01,31,19.60
2018,08,21,01,32,19.60
2018,08,21,01,33,19.60
2018,08,21,01,34,19.60
2018,08,21,01,35,19.60
2018,08,21,01,36,19.50
2018,08,21,01,37,19.50
2018,08,21,01,38,19.50
2018,08,21,01,39,19.50
2018,08,21,01,40,19.40
2018,08,21,01,41,19.40
2018,08,21,01,42,19.40
2018,08,21,01,43,19.40
2018,08,21,01,44,19.50
2018,08,21,01,45,19.50
2018,08,21,01,46,19.50
2018,08,21,01,47,19.60
2018,08,21,01,48,19.60
2018,08,21,01,49,19.60
2018,08,21,01,50,19.70
2018,08,21,01,51,19.70
2018,08,21,01,52,19.70
2018,08,21,01,53,19.70
2018,08,21,01,54,19.70
2018,08,21,01,55,19.70
2018,08,21,01,56,19.70
2018,08,21,01,57,19.70
2018,08,21,01,58,19.70
2018,08,21,01,59,19.70
2018,08,21,02,00,19.60
2018,08,21,02,01,19.60
2018,08,21,02,02,19.60
2018,08,21,02,03,19.60
2018,08,21,02,04,19.60
2018,08,21,02,05,19.60
2018,08,21,02,06,19.60
2018,08,21,02,07,19.60
2018,08,21,02,08,19.60
2018,08,21,02,09,19.50
2018,08,21,02,10,19.40
2018,08,21,02,11,19.40
2018,08,21,02,12,19.40
2018,08,21,02,13,19.30
2018,08,21,02,14,19.30
2018,08,21,02,15,19.30
2018,08,21,02,16,19.20
2018,08,21,02,17,19.20
2018,08,21,02,18,19.20
2018,08,21,02,19,19.20
2018,08,21,02,20,19.20
2018,08,21,02,21,19.10
2018,08,21,02,22,19.10
2018,08,21,02,23,19.10
2018,08,21,02,24,19.10
2018,08,21,02,25,19.10
2018,08,21,02,26,19.10
2018,08,21,02,27,19.10
2018,08,21,02,28,19.00
2018,08,21,02,29,18.90
2018,08,21,02,30,18.90
2018,08,21,02,31,18.90
2018,08,21,02,32,18.90
2018,08,21,02,33,18.90
2018,08,21,02,34,18.90
2018,08,21,02,35,18.90
2018,08,21,02,36,18.90
2018,08,21,02,37,18.90
2018,08,21,02,38,18.90
2018,08,21,02,39,19.00
2018,08,21,02,40,19.00
2018,08,21,02,41,19.00
2018,08,21,02,42,19.00
2018,08,21,02,43,19.10
2018,08,21,02,44,19.10
2018,08,21,02,45,19.00
2018,08,21,02,46,19.00
2018,08,21,02,47,19.00
2018,08,21,02,48,18.90
2018,08,21,02,49,18.90
2018,08,21,02,50,18.90
2018,08,21,02,51,18.80
2018,08,21,02,52,18.80
2018,08,21,02,53,18.70
2018,08,21,02,54,18.70
2018,08,21,02,55,18.70
2018,08,21,02,56,18.70
2018,08,21,02,57,18.60
2018,08,21,02,58,18.60
2018,08,21,02,59,18.60
2018,08,21,03,00,18.50
2018,08,21,03,01,18.50
2018,08,21,03,02,18.40
2018,08,21,03,03,18.40
2018,08,21,03,04,18.40
2018,08,21,03,05,18.40
2018,08,21,03,06,18.40
2018,08,21,03,07,18.30
2018,08,21,03,08,18.30
2018,08,21,03,09,18.30
2018,08,21,03,10,18.30
2018,08,21,03,11,18.30
2018,08,21,03,12,18.30
2018,08,21,03,13,18.30
2018,08,21,03,14,18.30
2018,08,21,03,15,18.30
2018,08,21,03,16,18.20
2018,08,21,03,17,18.20
2018,08,21,03,18,18.20
2018,08,21,03,19,18.20
2018,08,21,03,20,18.10
2018,08,21,03,21,18.10
2018,08,21,03,22,18.10
2018,08,21,03,23,18.00
2018,08,21,03,24,18.00
2018,08,21,03,25,17.90
2018,08,21,03,26,17.90
2018,08,21,03,27,17.80
2018,08,21,03,28,17.80
2018,08,21,03,29,17.70
2018,08,21,03,30,17.70
2018,08,21,03,31,17.60
2018,08,21,03,32,17.50
2018,08,21,03,33,17.50
2018,08,21,03,34,17.40
2018,08,21,03,35,17.30
2018,08,21,03,36,17.30
2018,08,21,03,37,17.30
2018,08,21,03,38,17.20
2018,08,21,03,39,17.20
2018,08,21,03,40,17.10
2018,08,21,03,41,17.10
2018,08,21,03,42,17.00
2018,08,21,03,43,17.00
2018,08,21,03,44,16.90
2018,08,21,03,45,16.90
2018,08,21,03,46,16.80
2018,08,21,03,47,16.80
2018,08,21,03,48,16.80
2018,08,21,03,49,16.80
2018,08,21,03,50,16.80
2018,08,21,03,51,16.80
2018,08,21,03,52,16.70
2018,08,21,03,53,16.70
2018,08,21,03,54,16.60
2018,08,21,03,55,16.60
2018,08,21,03,56,16.50
2018,08,21,03,57,16.50
2018,08,21,03,58,16.50
2018,08,21,03,59,16.50
2018,08,21,04,00,16.40
2018,08,21,04,01,16.40
2018,08,21,04,02,16.40
2018,08,21,04,03,16.40
2018,08,21,04,04,16.40
2018,08,21,04,05,16.40
2018,08,21,04,06,16.40
2018,08,21,04,07,16.40
2018,08,21,04,08,16.40
2018,08,21,04,09,16.50
2018,08,21,04,10,16.50
2018,08,21,04,11,16.50
2018,08,21,04,12,16.50
2018,08,21,04,13,16.50
2018,08,21,04,14,16.50
2018,08,21,04,15,16.40
2018,08,21,04,16,16.40
2018,08,21,04,17,16.40
2018,08,21,04,18,16.40
2018,08,21,04,19,16.40
2018,08,21,04,20,16.40
2018,08,21,04,21,16.40
2018,08,21,04,22,16.30
2018,08,21,04,23,16.30
2018,08,21,04,24,16.30
2018,08,21,04,25,16.30
2018,08,21,04,26,16.30
2018,08,21,04,27,16.30
2018,08,21,04,28,16.30
2018,08,21,04,29,16.40
2018,08,21,04,30,16.40
2018,08,21,04,31,16.50
2018,08,21,04,32,16.50
2018,08,21,04,33,16.60
2018,08,21,04,34,16.70
2018,08,21,04,35,16.70
2018,08,21,04,36,16.80
2018,08,21,04,37,16.80
2018,08,21,04,38,16.80
2018,08,21,04,39,16.80
2018,08,21,04,40,16.80
2018,08,21,04,41,16.80
2018,08,21,04,42,16.80
2018,08,21,04,43,16.90
2018,08,21,04,44,16.80
2018,08,21,04,45,16.80
2018,08,21,04,46,16.70
2018,08,21,04,47,16.70
2018,08,21,04,48,16.70
2018,08,21,04,49,16.70
2018,08,21,04,50,16.70
2018,08,21,04,51,16.60
2018,08,21,04,52,16.50
2018,08,21,04,53,16.50
2018,08,21,04,54,16.40
2018,08,21,04,55,16.40
2018,08,21,04,56,16.30
2018,08,21,04,57,16.30
2018,08,21,04,58,16.20
2018,08,21,04,59,16.20
2018,08,21,05,00,16.20
2018,08,21,05,01,16.20
2018,08,21,05,02,16.20
2018,08,21,05,03,16.20
2018,08,21,05,04,16.20
2018,08,21,05,05,16.20
2018,08,21,05,06,16.20
2018,08,21,05,07,16.20
2018,08,21,05,08,16.20
2018,08,21,05,09,16.20
2018,08,21,05,10,16.30
2018,08,21,05,11,16.30
2018,08,21,05,12,16.30
2018,08,21,05,13,16.30
2018,08,21,05,14,16.30
2018,08,21,05,15,16.30
2018,08,21,05,16,16.40
2018,08,21,05,17,16.40
2018,08,21,05,18,16.40
2018,08,21,05,19,16.40
2018,08,21,05,20,16.40
2018,08,21,05,21,16.40
2018,08,21,05,22,16.30
2018,08,21,05,23,16.30
2018,08,21,05,24,16.30
2018,08,21,05,25,16.30
2018,08,21,05,26,16.20
2018,08,21,05,27,16.20
2018,08,21,05,28,16.30
2018,08,21,05,29,16.30
2018,08,21,05,30,16.30
2018,08,21,05,31,16.40
2018,08,21,05,32,16.40
2018,08,21,05,33,16.50
2018,08,21,05,34,16.50
2018,08,21,05,35,16.60
2018,08,21,05,36,16.60
2018,08,21,05,37,16.60
2018,08,21,05,38,16.50
2018,08,21,05,39,16.50
2018,08,21,05,40,16.50
2018,08,21,05,41,16.50
2018,08,21,05,42,16.40
2018,08,21,05,43,16.40
2018,08,21,05,44,16.40
2018,08,21,05,45,16.40
2018,08,21,05,46,16.40
2018,08,21,05,47,16.30
2018,08,21,05,48,16.30
2018,08,21,05,49,16.30
2018,08,21,05,50,16.30
2018,08,21,05,51,16.20
2018,08,21,05,52,16.20
2018,08,21,05,53,16.20
2018,08,21,05,54,16.10
2018,08,21,05,55,16.10
2018,08,21,05,56,16.00
2018,08,21,05,57,16.00
2018,08,21,05,58,15.90
2018,08,21,05,59,15.90
2018,08,21,06,00,15.80
2018,08,21,06,01,15.80
2018,08,21,06,02,15.80
2018,08,21,06,03,15.80
2018,08,21,06,04,15.80
2018,08,21,06,05,15.70
2018,08,21,06,06,15.70
2018,08,21,06,07,15.70
2018,08,21,06,08,15.70
2018,08,21,06,09,15.70
2018,08,21,06,10,15.70
2018,08,21,06,11,15.70
2018,08,21,06,12,15.70
2018,08,21,06,13,15.70
2018,08,21,06,14,15.70
2018,08,21,06,15,15.60
2018,08,21,06,16,15.60
2018,08,21,06,17,15.60
2018,08,21,06,18,15.60
2018,08,21,06,19,15.60
2018,08,21,06,20,15.60
2018,08,21,06,21,15.60
2018,08,21,06,22,15.60
2018,08,21,06,23,15.50
2018,08,21,06,24,15.50
2018,08,21,06,25,15.50
2018,08,21,06,26,15.50
2018,08,21,06,27,15.40
2018,08,21,06,28,15.40
2018,08,21,06,29,15.40
2018,08,21,06,30,15.40
2018,08,21,06,31,15.40
2018,08,21,06,32,15.40
2018,08,21,06,33,15.40
2018,08,21,06,34,15.40
2018,08,21,06,35,15.30
2018,08,21,06,36,15.30
2018,08,21,06,37,15.30
2018,08,21,06,38,15.30
2018,08,21,06,39,15.30
2018,08,21,06,40,15.30
2018,08,21,06,41,15.30
2018,08,21,06,42,15.30
2018,08,21,06,43,15.30
2018,08,21,06,44,15.30
2018,08,21,06,45,15.30
2018,08,21,06,46,15.30
2018,08,21,06,47,15.30
2018,08,21,06,48,15.30
2018,08,21,06,49,15.30
2018,08,21,06,50,15.30
2018,08,21,06,51,15.30
2018,08,21,06,52,15.30
2018,08,21,06,53,15.30
2018,08,21,06,54,15.30
2018,08,21,06,55,15.30
2018,08,21,06,56,15.30
2018,08,21,06,57,15.40
2018,08,21,06,58,15.40
2018,08,21,06,59,15.40
2018,08,21,07,00,15.40
2018,08,21,07,01,15.40
2018,08,21,07,02,15.40
2018,08,21,07,03,15.40
2018,08,21,07,04,15.50
2018,08,21,07,05,15.50
2018,08,21,07,06,15.50
2018,08,21,07,07,15.60
2018,08,21,07,08,15.60
2018,08,21,07,09,15.60
2018,08,21,07,10,15.60
2018,08,21,07,11,15.60
2018,08,21,07,12,15.60
2018,08,21,07,13,15.70
2018,08,21,07,14,15.70
2018,08,21,07,15,15.70
2018,08,21,07,16,15.70
2018,08,21,07,17,15.70
2018,08,21,07,18,15.70
2018,08,21,07,19,15.70
2018,08,21,07,20,15.70
2018,08,21,07,21,15.70
2018,08,21,07,22,15.70
2018,08,21,07,23,15.80
2018,08,21,07,24,15.80
2018,08,21,07,25,15.80
2018,08,21,07,26,15.90
2018,08,21,07,27,15.90
2018,08,21,07,28,15.90
2018,08,21,07,29,16.00
2018,08,21,07,30,16.00
2018,08,21,07,31,16.00
2018,08,21,07,32,16.00
2018,08,21,07,33,16.10
2018,08,21,07,34,16.10
2018,08,21,07,35,16.10
2018,08,21,07,36,16.10
2018,08,21,07,37,16.20
2018,08,21,07,38,16.20
2018,08,21,07,39,16.20
2018,08,21,07,40,16.20
2018,08,21,07,41,16.20
2018,08,21,07,42,16.20
2018,08,21,07,43,16.20
2018,08,21,07,44,16.20
2018,08,21,07,45,16.20
2018,08,21,07,46,16.20
2018,08,21,07,47,16.20
2018,08,21,07,48,16.20
2018,08,21,07,49,16.20
2018,08,21,07,50,16.20
2018,08,21,07,51,16.20
2018,08,21,07,52,16.20
2018,08,21,07,53,16.20
2018,08,21,07,54,16.30
2018,08,21,07,55,16.30
2018,08,21,07,56,16.30
2018,08,21,07,57,16.30
2018,08,21,07,58,16.40
2018,08,21,07,59,16.40
2018,08,21,08,00,16.40
2018,08,21,08,01,16.50
2018,08,21,08,02,16.50
2018,08,21,08,03,16.60
2018,08,21,08,04,16.60
2018,08,21,08,05,16.70
2018,08,21,08,06,16.80
2018,08,21,08,07,16.80
2018,08,21,08,08,16.90
2018,08,21,08,09,17.00
2018,08,21,08,10,17.10
2018,08,21,08,11,17.10
2018,08,21,08,12,17.20
2018,08,21,08,13,17.30
2018,08,21,08,14,17.40
2018,08,21,08,15,17.40
2018,08,21,08,16,17.50
2018,08,21,08,17,17.60
2018,08,21,08,18,17.70
2018,08,21,08,19,17.70
2018,08,21,08,20,17.70
2018,08,21,08,21,17.80
2018,08,21,08,22,17.80
2018,08,21,08,23,17.80
2018,08,21,08,24,17.90
2018,08,21,08,25,17.90
2018,08,21,08,26,17.90
2018,08,21,08,27,17.90
2018,08,21,08,28,17.90
2018,08,21,08,29,17.90
2018,08,21,08,30,17.90
2018,08,21,08,31,17.80
2018,08,21,08,32,17.80
2018,08,21,08,33,17.80
2018,08,21,08,34,17.80
2018,08,21,08,35,17.70
2018,08,21,08,36,17.70
2018,08,21,08,37,17.60
2018,08,21,08,38,17.60
2018,08,21,08,39,17.50
2018,08,21,08,40,17.50
2018,08,21,08,41,17.40
2018,08,21,08,42,17.40
2018,08,21,08,43,17.40
2018,08,21,08,44,17.40
2018,08,21,08,45,17.40
2018,08,21,08,46,17.40
2018,08,21,08,47,17.40
2018,08,21,08,48,17.40
2018,08,21,08,49,17.40
2018,08,21,08,50,17.50
2018,08,21,08,51,17.50
2018,08,21,08,52,17.60
2018,08,21,08,53,17.60
2018,08,21,08,54,17.70
2018,08,21,08,55,17.70
2018,08,21,08,56,17.70
2018,08,21,08,57,17.80
2018,08,21,08,58,17.80
2018,08,21,08,59,17.90
2018,08,21,09,00,17.90
2018,08,21,09,01,18.00
2018,08,21,09,02,18.00
2018,08,21,09,03,18.10
2018,08,21,09,04,18.20
2018,08,21,09,05,18.30
2018,08,21,09,06,18.40
2018,08,21,09,07,18.50
2018,08,21,09,08,18.60
2018,08,21,09,09,18.70
2018,08,21,09,10,18.80
2018,08,21,09,11,18.90
2018,08,21,09,12,19.00
2018,08,21,09,13,19.10
2018,08,21,09,14,19.20
2018,08,21,09,15,19.30
2018,08,21,09,16,19.40
2018,08,21,09,17,19.40
2018,08,21,09,18,19.50
2018,08,21,09,19,19.60
2018,08,21,09,20,19.70
2018,08,21,09,21,19.70
2018,08,21,09,22,19.70
2018,08,21,09,23,19.80
2018,08,21,09,24,19.80
2018,08,21,09,25,19.80
2018,08,21,09,26,19.80
2018,08,21,09,27,19.90
2018,08,21,09,28,19.90
2018,08,21,09,29,20.00
2018,08,21,09,30,20.00
2018,08,21,09,31,20.10
2018,08,21,09,32,20.10
2018,08,21,09,33,20.20
2018,08,21,09,34,20.20
2018,08,21,09,35,20.30
2018,08,21,09,36,20.30
2018,08,21,09,37,20.40
2018,08,21,09,38,20.40
2018,08,21,09,39,20.40
2018,08,21,09,40,20.50
2018,08,21,09,41,20.50
2018,08,21,09,42,20.50
2018,08,21,09,43,20.60
2018,08,21,09,44,20.60
2018,08,21,09,45,20.70
2018,08,21,09,46,20.80
2018,08,21,09,47,20.90
2018,08,21,09,48,21.00
2018,08,21,09,49,21.10
2018,08,21,09,50,21.20
2018,08,21,09,51,21.30
2018,08,21,09,52,21.40
2018,08,21,09,53,21.40
2018,08,21,09,54,21.50
2018,08,21,09,55,21.60
2018,08,21,09,56,21.70
2018,08,21,09,57,21.70
2018,08,21,09,58,21.80
2018,08,21,09,59,21.80
2018,08,21,10,00,21.80
2018,08,21,10,01,21.90
2018,08,21,10,02,21.90
2018,08,21,10,03,21.90
2018,08,21,10,04,22.00
2018,08,21,10,05,22.00
2018,08,21,10,06,22.10
2018,08,21,10,07,22.20
2018,08,21,10,08,22.20
2018,08,21,10,09,22.30
2018,08,21,10,10,22.40
2018,08,21,10,11,22.50
2018,08,21,10,12,22.50
2018,08,21,10,13,22.60
2018,08,21,10,14,22.60
2018,08,21,10,15,22.70
2018,08,21,10,16,22.70
2018,08,21,10,17,22.70
2018,08,21,10,18,22.70
2018,08,21,10,19,22.70
2018,08,21,10,20,22.80
2018,08,21,10,21,22.80
2018,08,21,10,22,22.90
2018,08,21,10,23,22.90
2018,08,21,10,24,23.00
2018,08,21,10,25,23.10
2018,08,21,10,26,23.10
2018,08,21,10,27,23.10
2018,08,21,10,28,23.10
2018,08,21,10,29,23.10
2018,08,21,10,30,23.10
2018,08,21,10,31,23.10
2018,08,21,10,32,23.00
2018,08,21,10,33,23.00
2018,08,21,10,34,23.00
2018,08,21,10,35,22.90
2018,08,21,10,36,22.90
2018,08,21,10,37,22.80
2018,08,21,10,38,22.80
2018,08,21,10,39,22.70
2018,08,21,10,40,22.70
2018,08,21,10,41,22.70
2018,08,21,10,42,22.70
2018,08,21,10,43,22.60
2018,08,21,10,44,22.60
2018,08,21,10,45,22.50
2018,08,21,10,46,22.50
2018,08,21,10,47,22.50
2018,08,21,10,48,22.50
2018,08,21,10,49,22.50
2018,08,21,10,50,22.50
2018,08,21,10,51,22.50
2018,08,21,10,52,22.60
2018,08,21,10,53,22.60
2018,08,21,10,54,22.70
2018,08,21,10,55,22.70
2018,08,21,10,56,22.70
2018,08,21,10,57,22.80
2018,08,21,10,58,22.80
2018,08,21,10,59,22.80
2018,08,21,11,00,22.90
2018,08,21,11,01,22.90
2018,08,21,11,02,23.00
2018,08,21,11,03,23.00
2018,08,21,11,04,23.00
2018,08,21,11,05,23.10
2018,08,21,11,06,23.10
2018,08,21,11,07,23.20
2018,08,21,11,08,23.30
2018,08,21,11,09,23.40
2018,08,21,11,10,23.50
2018,08,21,11,11,23.70
2018,08,21,11,12,23.80
2018,08,21,11,13,23.80
2018,08,21,11,14,23.90
2018,08,21,11,15,23.90
2018,08,21,11,16,23.90
2018,08,21,11,17,24.00
2018,08,21,11,18,24.00
2018,08,21,11,19,24.10
2018,08,21,11,20,24.10
2018,08,21,11,21,24.10
2018,08,21,11,22,24.10
2018,08,21,11,23,24.10
2018,08,21,11,24,24.20
2018,08,21,11,25,24.20
2018,08,21,11,26,24.30
2018,08,21,11,27,24.30
2018,08,21,11,28,24.40
2018,08,21,11,29,24.40
2018,08,21,11,30,24.50
2018,08,21,11,31,24.60
2018,08,21,11,32,24.60
2018,08,21,11,33,24.60
2018,08,21,11,34,24.70
2018,08,21,11,35,24.80
2018,08,21,11,36,24.90
2018,08,21,11,37,24.90
2018,08,21,11,38,24.90
2018,08,21,11,39,24.90
2018,08,21,11,40,25.00
2018,08,21,11,41,25.00
2018,08,21,11,42,24.90
2018,08,21,11,43,24.90
2018,08,21,11,44,24.80
2018,08,21,11,45,24.80
2018,08,21,11,46,24.70
2018,08,21,11,47,24.70
2018,08,21,11,48,24.60
2018,08,21,11,49,24.50
2018,08,21,11,50,24.40
2018,08,21,11,51,24.40
2018,08,21,11,52,24.40
2018,08,21,11,53,24.30
2018,08,21,11,54,24.30
2018,08,21,11,55,24.30
2018,08,21,11,56,24.30
2018,08,21,11,57,24.30
2018,08,21,11,58,24.20
2018,08,21,11,59,24.20
2018,08,21,12,00,24.30
2018,08,21,12,01,24.40
2018,08,21,12,02,24.40
2018,08,21,12,03,24.50
2018,08,21,12,04,24.50
2018,08,21,12,05,24.60
2018,08,21,12,06,24.60
2018,08,21,12,07,24.60
2018,08,21,12,08,24.60
2018,08,21,12,09,24.70
2018,08,21,12,10,24.70
2018,08,21,12,11,24.70
2018,08,21,12,12,24.80
2018,08,21,12,13,24.80
2018,08,21,12,14,24.80
2018,08,21,12,15,24.90
2018,08,21,12,16,25.00
2018,08,21,12,17,25.10
2018,08,21,12,18,25.20
2018,08,21,12,19,25.20
2018,08,21,12,20,25.30
2018,08,21,12,21,25.30
2018,08,21,12,22,25.40
2018,08,21,12,23,25.50
2018,08,21,12,24,25.50
2018,08,21,12,25,25.60
2018,08,21,12,26,25.50
2018,08,21,12,27,25.50
2018,08,21,12,28,25.50
2018,08,21,12,29,25.40
2018,08,21,12,30,25.40
2018,08,21,12,31,25.40
2018,08,21,12,32,25.40
2018,08,21,12,33,25.50
2018,08,21,12,34,25.60
2018,08,21,12,35,25.70
2018,08,21,12,36,25.70
2018,08,21,12,37,25.80
2018,08,21,12,38,25.80
2018,08,21,12,39,25.80
2018,08,21,12,40,25.90
2018,08,21,12,41,25.90
2018,08,21,12,42,26.00
2018,08,21,12,43,26.10
2018,08,21,12,44,26.10
2018,08,21,12,45,26.20
2018,08,21,12,46,26.20
2018,08,21,12,47,26.30
2018,08,21,12,48,26.30
2018,08,21,12,49,26.30
2018,08,21,12,50,26.30
2018,08,21,12,51,26.40
2018,08,21,12,52,26.40
2018,08,21,12,53,26.40
2018,08,21,12,54,26.40
2018,08,21,12,55,26.30
2018,08,21,12,56,26.20
2018,08,21,12,57,26.20
2018,08,21,12,58,26.10
2018,08,21,12,59,26.10
2018,08,21,13,00,26.10
2018,08,21,13,01,26.10
2018,08,21,13,02,26.10
2018,08,21,13,03,26.10
2018,08,21,13,04,26.20
2018,08,21,13,05,26.20
2018,08,21,13,06,26.30
2018,08,21,13,07,26.30
2018,08,21,13,08,26.50
2018,08,21,13,09,26.50
2018,08,21,13,10,26.60
2018,08,21,13,11,26.60
2018,08,21,13,12,26.60
2018,08,21,13,13,26.60
2018,08,21,13,14,26.60
2018,08,21,13,15,26.50
2018,08,21,13,16,26.50
2018,08,21,13,17,26.50
2018,08,21,13,18,26.50
2018,08,21,13,19,26.60
2018,08,21,13,20,26.60
2018,08,21,13,21,26.70
2018,08,21,13,22,26.70
2018,08,21,13,23,26.70
2018,08,21,13,24,26.80
2018,08,21,13,25,26.80
2018,08,21,13,26,26.80
2018,08,21,13,27,26.80
2018,08,21,13,28,26.80
2018,08,21,13,29,26.70
2018,08,21,13,30,26.70
2018,08,21,13,31,26.70
2018,08,21,13,32,26.70
2018,08,21,13,33,26.80
2018,08,21,13,34,26.80
2018,08,21,13,35,26.90
2018,08,21,13,36,26.90
2018,08,21,13,37,27.00
2018,08,21,13,38,27.00
2018,08,21,13,39,27.10
2018,08,21,13,40,27.10
2018,08,21,13,41,27.10
2018,08,21,13,42,27.20
2018,08,21,13,43,27.20
2018,08,21,13,44,27.30
2018,08,21,13,45,27.30
2018,08,21,13,46,27.40
2018,08,21,13,47,27.40
2018,08,21,13,48,27.40
2018,08,21,13,49,27.40
2018,08,21,13,50,27.40
2018,08,21,13,51,27.50
2018,08,21,13,52,27.60
2018,08,21,13,53,27.60
2018,08,21,13,54,27.60
2018,08,21,13,55,27.60
2018,08,21,13,56,27.60
2018,08,21,13,57,27.60
2018,08,21,13,58,27.50
2018,08,21,13,59,27.50
2018,08,21,14,00,27.40
2018,08,21,14,01,27.40
2018,08,21,14,02,27.30
2018,08,21,14,03,27.20
2018,08,21,14,04,27.20
2018,08,21,14,05,27.10
2018,08,21,14,06,27.10
2018,08,21,14,07,27.10
2018,08,21,14,08,27.10
2018,08,21,14,09,27.10
2018,08,21,14,10,27.10
2018,08,21,14,11,27.10
2018,08,21,14,12,27.20
2018,08,21,14,13,27.20
2018,08,21,14,14,27.20
2018,08,21,14,15,27.20
2018,08,21,14,16,27.20
2018,08,21,14,17,27.20
2018,08,21,14,18,27.20
2018,08,21,14,19,27.30
2018,08,21,14,20,27.30
2018,08,21,14,21,27.30
2018,08,21,14,22,27.40
2018,08,21,14,23,27.40
2018,08,21,14,24,27.40
2018,08,21,14,25,27.50
2018,08,21,14,26,27.50
2018,08,21,14,27,27.60
2018,08,21,14,28,27.60
2018,08,21,14,29,27.60
2018,08,21,14,30,27.60
2018,08,21,14,31,27.60
2018,08,21,14,32,27.70
2018,08,21,14,33,27.70
2018,08,21,14,34,27.70
2018,08,21,14,35,27.70
2018,08,21,14,36,27.60
2018,08,21,14,37,27.60
2018,08,21,14,38,27.60
2018,08,21,14,39,27.60
2018,08,21,14,40,27.60
2018,08,21,14,41,27.60
2018,08,21,14,42,27.60
2018,08,21,14,43,27.60
2018,08,21,14,44,27.60
2018,08,21,14,45,27.70
2018,08,21,14,46,27.70
2018,08,21,14,47,27.70
2018,08,21,14,48,27.60
2018,08,21,14,49,27.60
2018,08,21,14,50,27.60
2018,08,21,14,51,27.60
2018,08,21,14,52,27.60
2018,08,21,14,53,27.60
2018,08,21,14,54,27.70
2018,08,21,14,55,27.70
2018,08,21,14,56,27.70
2018,08,21,14,57,27.70
2018,08,21,14,58,27.70
2018,08,21,14,59,27.70
2018,08,21,15,00,27.70
2018,08,21,15,01,27.70
2018,08,21,15,02,27.70
2018,08,21,15,03,27.70
2018,08,21,15,04,27.70
2018,08,21,15,05,27.70
2018,08,21,15,06,27.70
2018,08,21,15,07,27.70
2018,08,21,15,08,27.80
2018,08,21,15,09,27.80
2018,08,21,15,10,27.80
2018,08,21,15,11,27.80
2018,08,21,15,12,27.80
2018,08,21,15,13,27.90
2018,08,21,15,14,27.90
2018,08,21,15,15,27.90
2018,08,21,15,16,27.90
2018,08,21,15,17,27.90
2018,08,21,15,18,27.90
2018,08,21,15,19,27.90
2018,08,21,15,20,27.90
2018,08,21,15,21,27.90
2018,08,21,15,22,27.90
2018,08,21,15,23,27.90
2018,08,21,15,24,27.90
2018,08,21,15,25,28.00
2018,08,21,15,26,28.00
2018,08,21,15,27,28.10
2018,08,21,15,28,28.10
2018,08,21,15,29,28.10
2018,08,21,15,30,28.10
2018,08,21,15,31,28.10
2018,08,21,15,32,28.10
2018,08,21,15,33,28.00
2018,08,21,15,34,28.00
2018,08,21,15,35,27.90
2018,08,21,15,36,27.90
2018,08,21,15,37,27.90
2018,08,21,15,38,27.90
2018,08,21,15,39,27.90
2018,08,21,15,40,27.90
2018,08,21,15,41,27.90
2018,08,21,15,42,27.90
2018,08,21,15,43,27.90
2018,08,21,15,44,27.90
2018,08,21,15,45,27.90
2018,08,21,15,46,27.90
2018,08,21,15,47,27.90
2018,08,21,15,48,27.90
2018,08,21,15,49,27.80
2018,08,21,15,50,27.80
2018,08,21,15,51,27.80
2018,08,21,15,52,27.80
2018,08,21,15,53,27.80
2018,08,21,15,54,27.80
2018,08,21,15,55,27.80
2018,08,21,15,56,27.80
2018,08,21,15,57,27.80
2018,08,21,15,58,27.80
2018,08,21,15,59,27.80
2018,08,21,16,00,27.80
2018,08,21,16,01,27.80
2018,08,21,16,02,27.80
2018,08,21,16,03,27.80
2018,08,21,16,04,27.90
2018,08,21,16,05,27.90
2018,08,21,16,06,27.90
2018,08,21,16,07,27.90
2018,08,21,16,08,28.00
2018,08,21,16,09,28.00
2018,08,21,16,10,28.00
2018,08,21,16,11,28.00
2018,08,21,16,12,28.10
2018,08,21,16,13,28.10
2018,08,21,16,14,28.10
2018,08,21,16,15,28.10
2018,08,21,16,16,28.10
2018,08,21,16,17,28.20
2018,08,21,16,18,28.20
2018,08,21,16,19,28.20
2018,08,21,16,20,28.30
2018,08,21,16,21,28.30
2018,08,21,16,22,28.30
2018,08,21,16,23,28.30
2018,08,21,16,24,28.30
2018,08,21,16,25,28.40
2018,08,21,16,26,28.40
2018,08,21,16,27,28.50
2018,08,21,16,28,28.50
2018,08,21,16,29,28.50
2018,08,21,16,30,28.50
2018,08,21,16,31,28.50
2018,08,21,16,32,28.60
2018,08,21,16,33,28.60
2018,08,21,16,34,28.60
2018,08,21,16,35,28.60
2018,08,21,16,36,28.50
2018,08,21,16,37,28.60
2018,08,21,16,38,28.60
2018,08,21,16,39,28.60
2018,08,21,16,40,28.60
2018,08,21,16,41,28.60
2018,08,21,16,42,28.60
2018,08,21,16,43,28.60
2018,08,21,16,44,28.60
2018,08,21,16,45,28.60
2018,08,21,16,46,28.60
2018,08,21,16,47,28.70
2018,08,21,16,48,28.70
2018,08,21,16,49,28.70
2018,08,21,16,50,28.70
2018,08,21,16,51,28.70
2018,08,21,16,52,28.70
2018,08,21,16,53,28.70
2018,08,21,16,54,28.70
2018,08,21,16,55,28.70
2018,08,21,16,56,28.70
2018,08,21,16,57,28.80
2018,08,21,16,58,28.80
2018,08,21,16,59,28.80
2018,08,21,17,00,28.80
2018,08,21,17,01,28.90
2018,08,21,17,02,28.90
2018,08,21,17,03,28.90
2018,08,21,17,04,28.90
2018,08,21,17,05,28.90
2018,08,21,17,06,28.90
2018,08,21,17,07,28.90
2018,08,21,17,08,28.90
2018,08,21,17,09,28.90
2018,08,21,17,10,28.90
2018,08,21,17,11,28.90
2018,08,21,17,12,28.90
2018,08,21,17,13,28.90
2018,08,21,17,14,29.00
2018,08,21,17,15,29.00
2018,08,21,17,16,29.10
2018,08,21,17,17,29.10
2018,08,21,17,18,29.10
2018,08,21,17,19,29.10